COSMOS 2251 DEB, 39586

Orbit data source: Space-Track

COSMOS 2251 DEB, 39586 is space debris in LEO originally from a launch on Wed, 16 Jun 1993 UTC launched from the Plesetsk Missile And Space Complex (PKMTR). The debris from Iridium 33, an American commercial communications satellite, has been tracked extensively since its accidental collision with the defunct Russian satellite Cosmos 2251 in 2009. This event, occurring at high speed in low Earth orbit (LEO), generated thousands of pieces of space debris, significantly increasing the risk of further collisions. The Iridium 33 debris cloud has impacted space traffic management and orbital debris mitigation strategies, making it a subject of ongoing study in space situational awareness.

Loading next visibility...
Identifier
39586, 1993-036BUR
Orbit
LEO
Country
Flag of CISCIS
Related business
Manufacturer
Unknown
Mission
Spacecraft
Bus & Motor
Unknown
Mass
Unknown
Launch date (UTC)
1993-06-16 (33 years ago)
Launch vehicle
Unknown
Launch site
Plesetsk Missile And Space Complex (PKMTR)
Object type
Payload
Rocket body
Debris
Shape & HBR
Unknown shape, 0.1 m
Radar Cross Section
Small (<0.1 m²)

Expand to show TLE details & history
Last TLE update: 21 hours ago

TLE from 21 hours ago
0 COSMOS 2251 DEB
1 39586U 93036BUR 26061.43224745  .00000809  00000-0  36244-3 0  9997
2 39586  74.0074  85.1557 0102084 203.0522 224.9463 14.21408980621045
Epoch: 2026-03-02T10:22Z
TLE epoch observation values (Epoch: 2026-03-02T10:22:26.179Z)
Latitude
62.48211°
Longitude
162.49997°
Altitude
883.345 km
Speed
7.39 km/s
True Right ascension
07h 53m 20s
True Declination
62° 20' 36"
Sunlit
Object was in daylight at epoch
Visualization orbit readout
Latitude
Unknown
Longitude
Unknown
Altitude
Unknown
Speed
Unknown
Apparent Right ascension
Unknown
Apparent Declination
Unknown
Sunlit
N/A
Visualization observer readout
Local Sidereal Time
11:00:43
Azimuth
Unknown
Elevation
Unknown
Doppler factor
Unknown
Orbital elements
Apogee altitude
891.697 km
Perigee altitude
744.77 km
Semi-major axis
7,196.371 km
Eccentricity
0.01021
Inclination
74.0074°
RAAN
85.1557°
Arg. of periapsis
203.0522°
True anomaly
224.12733°
Mean anomaly
224.9463°
Eccentric anomaly
224.53608°
Mean motion
3.55527 °/min
Orbital period
101.26 mins
BSTAR
0.00036244
Loading maneuver chart data...
Computing Atmospheric mass density...

Documentation

Showing up to 5 results
|